Location: Burla
(50.9568°N, 10.4983°E)
Time: 23:46:02
(UTC+00:00)

CORIOLIS - Pass Details

Date: 18 January 2026
Orbit: 816 x 835 km, 98.7° (Epoch: 15 February)

Event Time Altitude Azimuth Distance (km) Brightness Sun altitude
Rises 06:21:05 0° 12° (NNE) 3,399 7.2 -7.9°
Reaches altitude 10° 06:23:29 10° 8° (N) 2,461 6.5 -7.6°
Maximum altitude 06:28:49 57° 292° (WNW) 985 4.3 -6.8°
Drops below altitude 10° 06:34:05 10° 215° (SW) 2,439 6.5 -6.1°
Sets 06:36:28 0° 211° (SSW) 3,366 7.3 -5.7°
